Location: Oshawa
(43.9000°N, 78.8670°W)
Time: 17:29:20
(UTC-04:00)

S-56A Canister/Altair - All Passes

Search period start: 25 June 2016 00:00
Search period end: 05 July 2016 00:00
Orbit: 639 x 2495 km, 38.9° (Epoch: 21 June)

Date Brightness Start Highest point End Pass type
(mag) Time Alt. Az. Time Alt. Az. Time Alt. Az.
25 Jun - 00:50:37 10° W 01:05:05 73° S 01:19:27 10° ESE visible
25 Jun - 02:56:49 10° W 03:11:23 57° SSW 03:23:58 10° SE visible
25 Jun - 05:04:37 10° W 05:15:50 28° SW 05:25:12 10° S daylight
25 Jun - 20:11:53 10° S 20:21:02 29° SE 20:32:21 10° E daylight
25 Jun - 22:13:17 10° SW 22:25:29 59° SSE 22:40:08 10° E visible
26 Jun - 00:17:44 10° W 00:31:47 73° S 00:46:30 10° E visible
26 Jun - 02:23:39 10° W 02:38:15 60° SSW 02:51:26 10° SE visible
26 Jun - 04:30:59 10° W 04:43:05 32° SW 04:53:20 10° SSE visible
26 Jun - 19:40:11 10° S 19:48:25 25° SE 19:58:36 10° E daylight
26 Jun - 21:40:54 10° SW 21:52:25 55° SSE 22:06:49 10° E visible
26 Jun - 23:44:56 10° WSW 23:58:30 72° S 00:13:27 10° E visible
27 Jun - 01:50:33 10° W 02:05:04 63° SSW 02:18:47 10° ESE visible
27 Jun - 03:57:28 10° W 04:10:15 36° SW 04:21:18 10° SSE visible
27 Jun - 19:08:41 10° S 19:15:53 21° SE 19:24:40 10° E daylight
27 Jun - 21:08:37 10° SW 21:19:28 51° SSE 21:33:27 10° E daylight
27 Jun - 23:12:15 10° WSW 23:25:15 72° S 23:40:20 10° E visible
28 Jun - 01:17:33 10° W 01:31:50 65° SSW 01:46:01 10° ESE visible
28 Jun - 03:24:05 10° W 03:37:21 39° SW 03:49:08 10° SSE visible
28 Jun - 05:35:38 10° WSW 05:40:42 13° WSW 05:45:28 10° SW daylight
28 Jun - 18:37:29 10° SSE 18:43:26 17° SE 18:50:31 10° E daylight
28 Jun - 20:36:27 10° SW 20:46:35 47° SSE 21:00:00 10° E daylight
28 Jun - 22:39:38 10° WSW 22:52:02 70° S 23:07:07 10° E visible
29 Jun - 00:44:37 10° W 00:58:35 67° SSW 01:13:09 10° ESE visible
29 Jun - 02:50:49 10° W 03:04:21 43° SW 03:16:48 10° SSE visible
29 Jun - 05:00:43 10° W 05:08:06 16° SW 05:14:56 10° SSW visible
29 Jun - 18:06:47 10° SSE 18:11:04 13° SE 18:15:55 10° E daylight
29 Jun - 20:04:23 10° SSW 20:13:49 43° SE 20:26:31 10° E daylight
29 Jun - 22:07:08 10° WSW 22:18:53 68° SSE 22:33:50 10° E visible
30 Jun - 00:11:48 10° W 00:25:20 69° S 00:40:11 10° ESE visible
30 Jun - 02:17:39 10° W 02:31:18 46° SSW 02:44:21 10° SE visible
30 Jun - 04:26:27 10° W 04:35:26 19° SW 04:43:44 10° SSW visible
30 Jun - 19:32:25 10° SSW 19:41:08 38° SE 19:52:57 10° E daylight
30 Jun - 21:34:43 10° WSW 21:45:49 66° SSE 22:00:29 10° E visible
30 Jun - 23:39:04 10° W 23:52:05 70° S 00:07:07 10° ESE visible
01 Jul - 01:44:36 10° W 01:58:12 50° SSW 02:11:47 10° SE visible
01 Jul - 03:52:33 10° W 04:02:41 22° SW 04:12:09 10° S visible
01 Jul - 19:00:35 10° SSW 19:08:33 33° SE 19:19:22 10° E daylight
01 Jul - 21:02:23 10° WSW 21:12:50 63° SSE 21:27:05 10° E daylight
01 Jul - 23:06:25 10° W 23:18:52 71° S 23:33:58 10° ESE visible
02 Jul - 01:11:38 10° W 01:25:04 53° SSW 01:39:06 10° SE visible
02 Jul - 03:18:54 10° W 03:29:52 26° SW 03:40:19 10° S visible
02 Jul - 18:28:52 10° SSW 18:36:04 29° SE 18:45:44 10° E daylight
02 Jul - 20:30:08 10° SW 20:39:55 60° SSE 20:53:39 10° E daylight
02 Jul - 22:33:51 10° W 22:45:42 71° S 23:00:43 10° ESE visible
03 Jul - 00:38:47 10° W 00:51:54 56° SSW 01:06:17 10° SE visible
03 Jul - 02:45:28 10° W 02:56:59 29° SW 03:08:16 10° S visible
03 Jul - 17:57:18 10° S 18:03:40 24° SE 18:12:01 10° E daylight
03 Jul - 19:57:59 10° SW 20:07:07 56° SSE 20:20:12 10° E daylight
03 Jul - 22:01:23 10° W 22:12:35 71° S 22:27:24 10° E visible
04 Jul - 00:06:01 10° W 00:18:45 58° SSW 00:33:21 10° SE visible
04 Jul - 02:12:12 10° W 02:24:03 32° SW 02:36:02 10° SSE visible
04 Jul - 17:25:56 10° S 17:31:21 20° SE 17:38:12 10° E daylight
04 Jul - 19:25:55 10° SW 19:34:24 51° SSE 19:46:44 10° E daylight
04 Jul - 21:28:59 10° WSW 21:39:33 71° S 21:54:02 10° E visible
